Change the Weather History Date:

Friday, November 23, 2012

  Actual Average Record
Temperature  
Mean Temperature 54 °F -  
Max Temperature 63 °F 62 °F 83 °F (2010)
Min Temperature 44 °F 43 °F 30 °F (2002)
Degree Days  
Heating Degree Days 10    
Growing Degree Days 4 (Base 50)    
Moisture  
Dew Point 50 °F    
Average Humidity 81    
Maximum Humidity 100    
Minimum Humidity 40    
Precipitation  
Precipitation 0.11 in - - ()
Sea Level Pressure  
Sea Level Pressure 30.27 in    
Wind  
Wind Speed 6 mph (North)    
Max Wind Speed 13 mph    
Max Gust Speed 21 mph    
Visibility 8 miles    
Events Rain    
Averages and records for this station are not official NWS values.
T = Trace of Precipitation, MM = Missing Value Source: NWS Daily Summary

Daily Weather History Graph

Daily Weather History Graph

Search for Another Location

Airport or City:

Trip Planner

Search our weather history database for the weather conditions in past years. The results will help you decide how hot, cold, wet, or windy it might be!

Date:

Astronomy

Nov. 23, 2012 Rise Set
Actual Time 6:51 AM CST 5:10 PM CST
Civil Twilight 6:25 AM CST 5:36 PM CST
Nautical Twilight 5:55 AM CST 6:06 PM CST
Astronomical Twilight 5:25 AM CST 6:36 PM CST
Moon 2:13 PM CST (11/23) 2:24 AM CST (11/23)
Length of Visible Light 11h 11m
Length of Day
10h 18m
Waxing Gibbous, 80% of the Moon is Illuminated
Nov 23
Waxing Gibbous
Nov 28
Full
Dec 6
Last Quarter
Dec 13
New
Dec 19
First Quarter

Hourly Weather History & Observations

Time (CST) Temp. Windchill Dew Point Humidity Pressure Visibility Wind Dir Wind Speed Gust Speed Precip Events Conditions
12:55 AM 55.0 °F - 49.6 °F 82% 30.16 in 10.0 mi SSE 6.9 mph - N/A   Overcast
1:55 AM 55.6 °F - 50.2 °F 82% 30.17 in 10.0 mi SSE 4.6 mph - N/A   Overcast
2:55 AM 55.6 °F - 50.5 °F 83% 30.17 in 10.0 mi SSE 4.6 mph - N/A   Overcast
3:55 AM 55.4 °F - 51.1 °F 85% 30.17 in 10.0 mi SSE 5.8 mph - N/A   Mostly Cloudy
4:55 AM 57.0 °F - 52.5 °F 85% 30.21 in 10.0 mi North 6.9 mph - N/A   Overcast
5:17 AM 57.2 °F - 51.8 °F 82% 30.22 in 10.0 mi North 4.6 mph - N/A   Light Drizzle
5:34 AM 57.2 °F - 53.6 °F 88% 30.21 in 7.0 mi ENE 4.6 mph - N/A Rain Light Rain
5:43 AM 57.2 °F - 53.6 °F 88% 30.21 in 7.0 mi ENE 5.8 mph - N/A Rain Light Rain
5:54 AM 57.2 °F - 53.6 °F 88% 30.22 in 10.0 mi Calm Calm - N/A   Overcast
5:55 AM 56.7 °F - 54.5 °F 92% 30.22 in 10.0 mi Calm Calm - 0.01 in   Overcast
6:41 AM 55.4 °F - 55.4 °F 100% 30.22 in 10.0 mi Calm Calm - N/A   Light Drizzle
6:55 AM 56.1 °F - 55.2 °F 97% 30.23 in 9.0 mi Calm Calm - 0.00 in Rain Light Rain
7:03 AM 55.4 °F - 55.4 °F 100% 30.25 in 2.5 mi NNW 6.9 mph - N/A Rain Heavy Rain
7:05 AM 55.4 °F - 55.4 °F 100% 30.24 in 2.0 mi NW 4.6 mph - N/A Rain Heavy Rain
7:06 AM 55.4 °F - 55.4 °F 100% 30.24 in 1.8 mi NW 4.6 mph - N/A Rain Heavy Rain
7:07 AM 55.4 °F - 55.4 °F 100% 30.24 in 1.5 mi NW 3.5 mph - N/A Rain Heavy Rain
7:09 AM 55.4 °F - 55.4 °F 100% 30.25 in 1.2 mi NW 3.5 mph - N/A Rain Heavy Rain
7:11 AM 55.4 °F - 55.4 °F 100% 30.24 in 1.5 mi Calm Calm - N/A Rain Heavy Rain
7:14 AM 55.4 °F - 55.4 °F 100% 30.24 in 1.8 mi West 3.5 mph - N/A Rain Light Rain
7:16 AM 57.2 °F - 55.4 °F 94% 30.24 in 2.0 mi WSW 3.5 mph - N/A Rain Light Rain
7:17 AM 57.2 °F - 55.4 °F 94% 30.25 in 2.5 mi Calm Calm - N/A Rain Light Rain
7:18 AM 57.2 °F - 55.4 °F 94% 30.25 in 3.0 mi Calm Calm - N/A Rain Light Rain
7:30 AM 57.2 °F - 57.2 °F 100% 30.25 in 8.0 mi Calm Calm - N/A   Overcast
7:55 AM 56.7 °F - 56.5 °F 99% 30.25 in 7.0 mi SE 3.5 mph - 0.10 in   Overcast
8:55 AM 57.6 °F - 57.2 °F 99% 30.27 in 9.0 mi Calm Calm - N/A   Overcast
9:55 AM 60.1 °F - 57.7 °F 92% 30.30 in 10.0 mi NNE 3.5 mph - N/A   Mostly Cloudy
10:19 AM 60.8 °F - 59.0 °F 94% 30.30 in 10.0 mi North 8.1 mph - N/A   Mostly Cloudy
10:43 AM 60.8 °F - 57.2 °F 88% 30.31 in 10.0 mi North 9.2 mph - N/A   Overcast
10:55 AM 59.9 °F - 57.2 °F 91% 30.31 in 10.0 mi NNE 11.5 mph - N/A   Overcast
11:12 AM 60.8 °F - 55.4 °F 82% 30.31 in 6.0 mi NE 10.4 mph - N/A   Haze
11:13 AM 60.8 °F - 55.4 °F 82% 30.32 in 6.0 mi NE 11.5 mph - N/A   Haze
11:40 AM 59.0 °F - 57.2 °F 94% 30.31 in 3.0 mi NE 11.5 mph - N/A   Light Drizzle
11:44 AM 59.0 °F - 57.2 °F 94% 30.31 in 3.0 mi NNE 9.2 mph - N/A   Light Drizzle
11:55 AM 57.2 °F - 54.5 °F 91% 30.32 in 7.0 mi NNE 11.5 mph 20.7 mph 0.00 in   Light Drizzle
12:01 PM 57.2 °F - 53.6 °F 88% 30.31 in 9.0 mi NNE 12.7 mph - N/A   Overcast
12:14 PM 57.2 °F - 53.6 °F 88% 30.32 in 10.0 mi North 9.2 mph - N/A   Overcast
12:27 PM 57.2 °F - 48.2 °F 72% 30.32 in 10.0 mi NNE 12.7 mph - N/A   Overcast
12:55 PM 58.5 °F - 39.0 °F 48% 30.32 in 10.0 mi NNE 10.4 mph - 0.00 in   Overcast
1:55 PM 60.8 °F - 40.3 °F 47% 30.30 in 10.0 mi North 11.5 mph - N/A   Overcast
2:55 PM 61.5 °F - 39.4 °F 44% 30.30 in 10.0 mi NNW 6.9 mph - N/A   Mostly Cloudy
3:55 PM 63.7 °F - 41.4 °F 44% 30.30 in 10.0 mi North 8.1 mph - N/A   Partly Cloudy
4:55 PM 60.6 °F - 36.0 °F 40% 30.30 in 10.0 mi North 6.9 mph - N/A   Clear
5:55 PM 54.5 °F - 36.0 °F 50% 30.31 in 10.0 mi North 4.6 mph - N/A   Clear
6:55 PM 51.4 °F - 34.9 °F 53% 30.32 in 10.0 mi NNW 9.2 mph - N/A   Clear
7:55 PM 50.0 °F - 33.8 °F 54% 30.34 in 10.0 mi NNW 8.1 mph - N/A   Clear
8:55 PM 49.1 °F - 31.5 °F 51% 30.36 in 10.0 mi NNW 8.1 mph - N/A   Clear
9:55 PM 49.1 °F - 28.9 °F 46% 30.36 in 10.0 mi North 10.4 mph - N/A   Clear
10:55 PM 46.2 °F 42.2 °F 27.9 °F 49% 30.37 in 10.0 mi North 8.1 mph - N/A   Clear
11:55 PM 44.1 °F 39.5 °F 28.0 °F 53% 30.38 in 10.0 mi North 8.1 mph - N/A   Clear